OpenBCM V1.07b12 (Linux)

Packet Radio Mailbox

DB0FHN

[JN59NK Nuernberg]

 Login: GUEST





  
WG3K   > KEPS     02.03.25 03:56l 324 Lines 15488 Bytes #999 (0) @ AMSAT
BID : ORB25061.1
Read: DJ6UX GUEST
Subj: 2Line Orbital Elements 25061.AMSAT
Path: DB0FHN<DB0RKB<DK0WUE<PI8ZTM<CX2SA<N3HYM<WG3K
Sent: 250302/0106Z 14544@WG3K.#SMD.MD.USA.NOAM LinBPQ6.0.24


QST de W1STR

AMSAT Orbital Elements for Amateur Satellites in TLE Format
From Orbital Analysis Office
New England Sci-Tech STEM Education Center
Natick, MA March 02, 2025
To all radio amateurs


These element sets describe the orbits of various satellites 
in use by the amateur radio community. For details see:
www.amsat.org/keplerian-elements-formats/

A daily update of element sets is available at:
www.amsat.org/tle/daily-bulletin.txt
or without bulletin text:
www.amsat.org/tle/dailytle.txt


AO-07
1 07530U 74089B   25060.59189804 -.00000046  00000-0  23552-5 0  9993
2 07530 101.9947  63.7876 0011976 313.9197 167.1978 12.53686707301291
UO-11
1 14781U 84021B   25060.81868551  .00003262  00000-0  35398-3 0  9995
2 14781  97.7428  29.2678 0006570 316.5702  43.4997 14.88813604207790
AO-27
1 22825U 93061C   25060.70458605  .00000322  00000-0  14007-3 0  9998
2 22825  98.7508 121.7053 0009166  51.0266 309.1732 14.30740013639702
FO-29
1 24278U 96046B   25060.34685276  .00000026  00000-0  64828-4 0  9992
2 24278  98.5859 327.3852 0348973 242.1733 114.3637 13.53239094409215
NOAA-15
1 25338U 98030A   25060.82058337  .00000429  00000-0  19437-3 0  9992
2 25338  98.5469  88.3034 0009166 293.3283  66.6933 14.26897825394171
GO-32
1 25397U 98043D   25060.86716185  .00000289  00000-0  14518-3 0  9996
2 25397  98.9601  37.9614 0002153 114.7705 245.3697 14.24264014384310
ISS
1 25544U 98067A   25060.57336077  .00021542  00000-0  38907-3 0  9995
2 25544  51.6350 120.0421 0006201 330.9003  29.1639 15.49641142498478
NO-44
1 26931U 01043C   25060.32961792  .00000638  00000-0  27040-3 0  9994
2 26931  67.0518  27.0212 0005848 265.6312  94.4121 14.31638193222752
SO-50
1 27607U 02058C   25060.64202072  .00003175  00000-0  41967-3 0  9999
2 27607  64.5548 148.9087 0044595 358.7776   1.3213 14.81056944194638
CO-55
1 27844U 03031E   25060.54846595  .00000918  00000-0  41975-3 0  9998
2 27844  98.6795  70.1054 0010751 115.4017 244.8276 14.23848384124433
CO-57
1 27848U 03031J   25060.52104116  .00000773  00000-0  36120-3 0  9991
2 27848  98.6824  70.1583 0010460 130.7199 229.4889 14.23204544124135
RS-22
1 27939U 03042A   25060.83795247  .00003043  00000-0  49432-3 0  9992
2 27939  98.3162 227.9583 0011000 330.0873 159.9455 14.71859432146152
NOAA-18
1 28654U 05018A   25060.81941253  .00000417  00000-0  24462-3 0  9998
2 28654  98.8486 141.4027 0014853  55.9279 304.3301 14.13530065 19650
CO-58
1 28895U 05043F   25060.37214324  .00004494  00000-0  75148-3 0  9992
2 28895  98.2316 203.6062 0013981 263.6647  96.2967 14.70298994 32218
CO-65
1 32785U 08021C   25060.85326389  .00011590  00000-0  87374-3 0  9991
2 32785  97.7765  31.4603 0010292 178.5620 181.5636 15.02581647914168
AAUSAT2
1 32788U 08021F   25060.52247549  .00132793  00000-0  21938-2 0  9990
2 32788  97.6058  53.0258 0004732  79.7699 280.4086 15.51755710917698
CO-66
1 32791U 08021J   25059.97941918  .00026459  00000-0  14309-2 0  9997
2 32791  97.7205  38.0993 0006330 130.0967 230.0820 15.14629752915321
RS-30
1 32953U 08025A   25060.76861863  .00000030  00000-0  14679-3 0  9998
2 32953  82.5005 289.2740 0018646 263.8818  96.0138 12.43159545761120
NOAA-19
1 33591U 09005A   25060.80953750  .00000385  00000-0  22945-3 0  9996
2 33591  99.0103 124.9077 0012776 286.1547  73.8218 14.13298201828010
SRMSAT
1 37841U 11058D   25060.26944008  .00000674  00000-0  22283-3 0  9991
2 37841  19.9730  41.5458 0011831  42.5835 345.4527 14.11373532690928
ZACUBE-1
1 39417U 13066B   25060.45430873  .00011281  00000-0  10165-2 0  9995
2 39417  97.7690  18.1788 0046756  28.8026 331.5761 14.94898373609941
Delfi-N3xt
1 39428U 13066N   25060.32448446  .00017133  00000-0  18305-2 0  9994
2 39428  97.8381 339.2469 0087569 331.7421  27.9057 14.86025544604173
GOMX-1
1 39430U 13066Q   25060.72294626  .00004663  00000-0  73486-3 0  9996
2 39430  97.6972 285.4731 0134552 151.3773 209.4905 14.66951216600767
LO-74
1 39440U 13066AA  25060.83899625  .00007832  00000-0  81812-3 0  9992
2 39440  97.8406   6.2474 0064891 147.4192 213.1055 14.88398199607791
AO-73
1 39444U 13066AE  25060.36967699  .00016732  00000-0  13325-2 0  9993
2 39444  97.7544  22.2144 0041999   7.4548 352.7291 14.99738745608557
DTUSAT-2
1 40030U 14033W   25060.84374919  .00015666  00000-0  10810-2 0  9992
2 40030  98.0457  28.0655 0011282  47.2525 312.9648 15.05835522581886
EO-80
1 40032U 14033Y   25060.86936340  .00014924  00000-0  10281-2 0  9996
2 40032  98.0332  27.8831 0008299 353.2288   6.8824 15.05933456581872
LILACSAT-2
1 40908U 15049K   25060.76587991  .00019168  00000-0  55692-3 0  9990
2 40908  97.5152  78.8822 0011152 148.8496 211.3410 15.35459532522897
IO-86
1 40931U 15052B   25038.81889873  .00001817  00000-0  15548-3 0  9993
2 40931   6.0001 108.1159 0012838 187.7041 172.2889 14.78568669506492
Horyu-4
1 41340U 16012D   25060.34358459  .00031587  00000-0  10318-2 0  9995
2 41340  30.9995  83.1171 0006997 112.6812 247.4572 15.30527306497386
Lapan A3
1 41603U 16040E   25060.78703312  .00006410  00000-0  23187-3 0  9994
2 41603  97.1396  69.3686 0009223 264.2020  95.8169 15.28720537482531
CAS-2T
1 41847U 16066G   25060.78485336  .00003462  00000-0  49883-3 0  9990
2 41847  98.4290 136.1069 0348702 120.2572 243.3618 14.43053497436625
CAS-4B
1 42759U 17034B   25060.81019920  .00062508  00000-0  11059-2 0  9994
2 42759  43.0108 190.4533 0018090 311.1605  48.7693 15.49278216427055
CAS-4A
1 42761U 17034D   25060.77068350  .00062945  00000-0  10924-2 0  9998
2 42761  43.0144 188.5721 0019257 316.8709  43.0642 15.49795524427067
TechnoSat
1 42829U 17042E   25060.46420670  .00007348  00000-0  58601-3 0  9996
2 42829  97.3891 234.0019 0011898 264.0556  95.9312 15.00538033415702
AO-91
1 43017U 17073E   25060.57151593  .00016008  00000-0  85256-3 0  9996
2 43017  97.5458 293.9385 0181715 146.2527 215.0425 15.02109219394188
S-Net D
1 43186U 18014G   25060.70766728  .00009845  00000-0  60704-3 0  9998
2 43186  97.5717 324.6954 0008583 196.2740 163.8215 15.10116060387292
S-Net B
1 43187U 18014H   25060.71186804  .00010012  00000-0  61740-3 0  9990
2 43187  97.5728 324.6661 0009445 191.9936 168.1070 15.10100728387298
S-Net A
1 43188U 18014J   25060.31080111  .00009811  00000-0  60495-3 0  9992
2 43188  97.5736 324.4067 0009242 194.1489 165.9483 15.10110471387232
S-Net C
1 43189U 18014K   25060.78030264  .00009881  00000-0  60917-3 0  9994
2 43189  97.5750 324.8683 0011126 186.3019 173.8073 15.10098598385857
Ten-Koh
1 43677U 18084G   25060.48117622  .00007308  00000-0  59798-3 0  9991
2 43677  98.0901 228.7516 0009837 237.5920 122.4351 14.99611183345230
PO-101
1 43678U 18084H   25060.79309332  .00005336  00000-0  46330-3 0  9994
2 43678  98.0940 233.1954 0008071 258.4564 101.5751 14.97460909345446
QO-100
1 43700U 18090A   25060.31433525  .00000141  00000-0  00000-0 0  9997
2 43700   0.0101 119.4812 0001294 247.8806 290.9380  1.00272530 22932
MinXSS-2
1 43758U 18099A   25060.70274030  .00025981  00000-0  11692-2 0  9996
2 43758  97.5155 126.6674 0013856 145.0565 215.1583 15.20985890341765
AO-95
1 43770U 18099N   25060.12134849  .00021368  00000-0  11673-2 0  9993
2 43770  97.5059 119.4356 0011402 195.7044 164.3836 15.14274344341335
RANGE-A
1 43773U 18099R   25060.69873740  .00009588  00000-0  63410-3 0  9995
2 43773  97.4624 112.0152 0012122 169.1047 191.0446 15.07514455341163
MOVE-II
1 43780U 18099Y   25060.24666103  .00090715  00000-0  19286-2 0  9990
2 43780  97.4800 130.8615 0004257 161.9053 198.2348 15.44649709342170
SNUSat 2
1 43782U 18099AA  25060.38126486  .00015420  00000-0  89554-3 0  9998
2 43782  97.4746 117.2241 0013650 137.6385 222.5902 15.12125614341344
SnugLite
1 43784U 18099AC  25060.70079863  .00017322  00000-0  94008-3 0  9995
2 43784  97.4561 116.9282 0004753 135.2403 224.9213 15.14598070341502
ITASat 1
1 43786U 18099AE  25060.74994554  .00012541  00000-0  75569-3 0  9993
2 43786  97.4716 117.3644 0015066 185.5413 174.5652 15.10822193341375
EAGLET 1
1 43790U 18099AJ  25060.11893974  .00010219  00000-0  67383-3 0  9998
2 43790  97.4904 116.9920 0012878 168.7984 191.3534 15.07599709340921
ESEO
1 43792U 18099AL  25060.56147738  .00004891  00000-0  37774-3 0  9999
2 43792  97.4579 111.9696 0011409 138.0003 222.2099 15.01933449340801
CSIM
1 43793U 18099AM  25060.74959612  .00102360  00000-0  21448-2 0  9992
2 43793  97.4978 133.3984 0006368 133.9452 226.2322 15.45020231342093
JO-97
1 43803U 18099AX  25060.20948583  .00019944  00000-0  10032-2 0  9992
2 43803  97.4811 120.3460 0009121 132.6434 227.5570 15.17228504341531
Suomi 100
1 43804U 18099AY  25060.73930980  .00017324  00000-0  91811-3 0  9998
2 43804  97.4874 120.4099 0014332 133.1316 227.1118 15.15363743341565
ISAT
1 43879U 18111D   25060.71603534  .00032622  00000-0  13390-2 0  9998
2 43879  97.6027 333.2715 0009913 173.3784 186.7585 15.24111172336437
UWE-4
1 43880U 18111E   25060.27177995  .00023510  00000-0  10508-2 0  9992
2 43880  97.5969 331.9160 0012571 190.6862 169.4108 15.21258926338353
Sparrow
1 43881U 18111F   25060.70375087  .00033548  00000-0  13398-2 0  9995
2 43881  97.6156 335.7854 0006058 211.8519 148.2352 15.25053909336535
Prox-1
1 44339U 19036A   25060.26034284  .00016836  00000-0  23174-2 0  9997
2 44339  23.9986 359.2968 0007234   5.8788 354.1792 14.76638231303150
SONATE
1 44400U 19038Q   25060.59930027  .00094762  00000-0  10962-2 0  9999
2 44400  97.7080  76.7284 0006673 244.1517 115.9052 15.61524105313836
Taurus 1
1 44530U 19059C   25060.79324091  .00015065  00000-0  29173-2 0  9999
2 44530  98.5932 195.6881 0009140 338.3461  21.7352 14.63373107289334
Duchifat 3
1 44854U 19089C   25060.81274301  .00054786  00000-0  15336-2 0  9991
2 44854  36.9466 264.6966 0005672  64.6819 295.4521 15.35613273287544
